GEFSGL_500_meanwind_192.txt.gz
Wind_Speed
11 11 11 10 10 10 11 12 12 12 12 13 14 14 15 15 16 16 17 17 17 17 17 17 17 17 18 18 17 17 18 17 16 16 17 17 17 17 16 17 17 17 17
12 11 11 10 10 10 11 12 12 12 12 13 14 14 15 16 16 17 17 17 17 17 18 18 19 19 19 19 19 19 19 19 18 19 19 19 19 19 19 18 18 19 19
13 12 11 10 10 11 11 12 12 13 13 14 14 15 16 16 16 17 17 17 18 18 17 18 19 19 20 20 20 20 21 20 19 20 21 21 20 21 21 20 20 20 20
12 12 12 11 11 11 12 12 12 13 13 14 15 16 17 17 16 17 17 18 18 18 19 19 19 20 20 20 20 21 22 21 21 21 22 22 22 22 21 21 22 22 22
13 12 12 12 12 12 12 13 14 13 14 15 15 16 17 17 17 18 17 18 18 18 20 20 20 20 21 21 21 21 22 23 23 23 23 23 23 23 23 23 24 25 25
14 13 13 12 13 13 13 14 15 15 15 16 16 17 17 18 19 19 19 19 19 20 21 21 20 20 21 22 22 23 24 24 25 24 24 24 24 25 26 27 27 27 28
13 13 13 13 14 14 14 15 16 16 16 17 18 18 18 19 20 21 21 21 21 21 21 21 22 22 22 22 23 24 24 24 25 25 24 25 25 26 28 29 29 29 29
13 13 13 14 14 14 14 15 16 16 17 17 18 19 19 20 21 22 22 22 22 22 22 23 23 23 24 25 26 25 25 25 25 25 25 25 26 27 29 30 31 31 32
13 14 14 14 14 14 15 15 16 17 18 18 19 19 19 19 20 21 22 22 22 23 24 25 25 25 25 26 27 27 27 27 27 28 28 28 28 29 30 31 32 33 33
15 15 15 15 15 15 15 16 17 17 18 18 18 18 18 19 20 20 20 21 22 23 24 25 25 26 27 27 27 27 28 29 29 30 30 30 31 31 32 33 33 33 33
16 16 16 15 16 16 16 17 18 18 18 18 18 18 18 18 19 20 21 23 24 24 24 25 25 26 27 28 27 27 28 29 30 31 31 31 32 32 33 34 34 34 35
17 16 16 16 17 17 18 18 19 19 19 19 19 19 18 18 19 20 22 23 24 24 24 25 25 25 26 27 28 28 29 30 31 32 32 33 34 34 34 35 36 37 38
16 17 17 17 18 19 19 19 19 19 20 20 20 20 20 20 20 21 23 24 25 25 25 25 24 24 25 27 29 30 30 31 32 32 33 34 34 34 35 37 39 39 39
18 18 18 18 19 19 19 19 20 20 20 21 21 21 21 22 22 23 23 24 24 24 24 25 26 26 28 29 29 30 31 32 33 33 34 35 36 37 38 39 40 40 40
19 20 20 20 20 20 21 20 20 20 20 20 20 21 21 22 22 23 23 23 23 24 25 25 26 27 28 29 30 30 31 32 32 33 35 36 37 38 38 39 41 41 42
20 19 20 20 20 20 21 21 21 20 19 20 20 21 22 23 23 23 22 23 23 24 25 26 26 27 28 29 30 31 32 33 34 36 36 37 39 40 40 41 42 42 43
20 20 21 21 20 20 20 20 20 20 20 20 20 21 21 22 22 22 23 24 24 24 24 25 26 27 28 29 31 32 34 35 36 37 38 39 39 39 39 40 41 42 42
21 21 21 21 21 21 21 21 21 21 21 21 21 21 22 22 23 23 23 23 24 24 24 25 27 28 30 31 32 33 34 35 37 37 38 38 39 39 39 39 40 41 41
20 20 20 20 20 21 21 21 21 21 21 21 22 22 22 23 24 24 24 24 24 25 26 27 28 29 30 31 33 34 35 36 36 37 37 38 38 38 39 40 41 42 43
20 20 19 20 20 21 21 21 21 21 21 22 23 23 23 23 24 25 25 26 26 26 27 29 30 31 32 33 34 34 35 36 37 37 37 38 38 39 40 41 42 43 44
19 19 19 20 20 21 21 21 22 22 22 23 23 24 24 24 24 25 26 28 28 28 29 30 31 32 33 35 35 35 35 36 36 36 37 38 39 39 40 41 43 43 44
18 18 18 19 20 20 21 21 22 22 22 23 23 24 24 25 26 26 26 27 28 30 31 32 33 33 34 35 36 36 36 36 36 37 38 39 39 40 40 41 42 43 43
18 18 19 19 19 19 20 20 21 21 22 23 23 24 25 25 26 27 27 27 29 30 31 32 33 34 35 35 35 35 35 36 37 38 38 38 39 40 41 41 41 40 39
18 19 19 18 18 19 19 20 21 22 23 24 24 25 26 26 26 27 28 28 29 30 31 31 32 33 33 33 34 35 35 35 36 37 37 37 37 38 38 38 37 37 36
18 18 18 18 19 19 20 21 22 22 23 24 25 25 26 26 27 28 28 29 29 29 29 30 31 31 32 33 34 35 36 36 36 37 37 37 36 36 36 36 35 35 35
17 17 18 18 19 19 20 21 22 23 24 24 25 26 26 27 27 28 28 29 29 30 30 30 31 32 32 33 34 35 36 36 37 37 37 37 36 36 35 35 35 35 34

GEFSGL_500_meanwind_198.txt.gz
Wind_Speed
14 13 13 13 13 13 13 14 14 14 13 14 14 14 15 15 16 16 16 17 18 18 18 19 19 20 20 20 20 19 20 20 20 20 21 21 21 22 22 21 21 21 21
14 13 13 12 12 13 13 14 14 14 14 14 15 15 15 16 17 18 17 18 18 19 19 19 20 20 21 21 21 21 21 21 21 21 22 23 23 24 24 24 24 23 23
14 14 13 13 13 14 14 14 14 14 14 15 15 16 16 16 17 18 18 19 19 20 20 20 21 21 22 22 22 22 23 23 22 22 23 24 24 24 24 24 25 25 25
15 14 13 14 14 14 15 15 14 14 15 15 16 16 16 17 17 18 19 19 20 20 20 21 21 22 23 24 23 22 23 24 24 24 24 24 25 25 25 25 26 26 27
16 15 14 14 14 14 14 14 14 15 15 16 16 17 17 17 18 18 19 20 21 21 21 21 21 22 23 24 24 24 25 26 26 26 26 26 26 26 26 26 27 27 27
16 15 14 14 14 14 15 15 16 16 16 17 17 17 17 17 18 18 19 21 22 22 22 23 24 24 24 24 24 25 26 27 28 28 28 28 28 28 28 28 28 29 29
15 16 15 15 15 15 15 16 16 16 17 18 18 18 18 18 18 19 20 21 22 23 24 24 25 25 25 25 26 26 26 27 28 28 29 30 30 30 29 29 30 30 31
17 16 16 16 15 16 16 16 16 17 17 18 19 19 19 19 20 21 22 22 23 24 24 25 26 26 25 26 26 27 27 27 27 28 30 30 30 30 30 31 31 33 33
16 16 16 16 16 15 16 16 16 17 17 18 19 19 20 21 22 22 22 23 23 23 24 24 25 25 25 26 27 27 27 28 29 30 31 31 31 31 31 32 33 34 34
17 17 17 16 16 16 16 16 17 18 18 18 19 20 20 21 21 22 22 23 22 22 23 24 24 25 25 27 28 28 28 29 30 31 32 32 32 33 33 34 35 36 36
18 18 18 18 17 17 17 17 18 18 19 20 20 21 21 21 21 22 22 22 22 22 23 24 25 26 26 27 27 27 28 29 30 31 32 32 33 35 36 36 37 37 38
18 19 19 19 18 18 18 18 18 19 20 21 21 21 21 22 22 22 23 23 23 23 24 25 26 26 27 28 28 28 29 29 30 31 32 33 34 35 36 36 37 38 39
17 17 18 18 19 19 19 19 20 20 21 21 21 22 22 23 23 23 23 24 25 25 25 26 26 26 27 28 28 29 29 29 31 32 33 34 35 35 36 37 38 39 40
18 18 19 20 21 21 21 21 21 21 22 22 23 23 22 22 23 23 24 25 26 26 26 27 27 27 28 28 28 29 30 31 32 32 33 34 35 36 37 38 39 40 41
19 20 20 20 21 21 21 21 22 22 22 23 23 23 23 23 23 24 24 25 25 26 26 27 27 27 27 28 29 29 30 31 32 33 34 35 36 38 39 40 41 41 42
20 21 21 21 21 20 20 21 21 22 22 24 24 23 23 24 24 25 25 25 26 26 27 27 27 27 28 28 29 31 32 32 33 34 35 36 37 38 39 41 42 42 42
20 21 21 21 21 21 21 22 22 23 24 24 24 23 24 24 24 25 25 26 27 27 28 28 29 29 29 30 31 32 33 34 35 36 37 38 38 39 40 41 42 42 43
20 21 21 22 22 22 23 23 24 25 25 24 23 24 24 25 26 26 26 27 28 28 29 29 30 30 31 32 33 34 34 35 36 37 38 39 40 41 41 42 42 42 41
21 21 21 22 23 23 23 24 24 24 24 24 23 24 25 26 26 27 27 28 28 29 29 30 31 32 33 34 35 36 36 37 37 38 39 40 41 41 41 41 41 40 40
22 22 22 22 22 22 22 23 23 24 24 24 24 25 26 27 28 28 29 29 30 30 31 32 32 33 34 35 36 37 37 37 38 38 38 39 40 40 39 39 39 40 40
22 22 21 21 22 22 22 23 23 24 24 24 25 25 26 27 28 29 30 31 31 32 33 33 33 35 35 36 36 37 37 37 38 38 39 39 39 39 39 39 40 40 41
21 21 21 21 22 22 22 23 23 23 24 24 25 25 26 27 28 29 30 31 32 32 33 33 34 34 34 34 35 35 36 36 37 37 38 38 39 39 39 39 39 39 40
20 20 20 21 21 21 21 22 22 23 23 24 25 26 27 28 29 29 30 31 31 32 32 32 32 33 33 34 34 35 36 36 37 38 38 39 39 40 40 40 39 39 39
19 19 19 19 20 21 22 22 23 23 24 25 26 27 28 29 30 30 30 31 31 31 31 31 31 32 33 33 34 34 35 35 36 37 37 38 39 39 39 39 38 38 38
18 18 18 19 20 20 21 22 23 24 25 26 26 27 28 29 30 30 30 30 31 31 31 31 31 32 33 33 34 35 36 36 37 38 38 39 39 39 39 38 37 37 37
17 17 18 18 19 19 20 22 23 24 25 26 27 28 28 29 29 29 29 30 30 31 31 32 33 34 34 35 36 36 37 37 38 38 38 38 38 38 37 37 36 35 35

GEFSGL_500_meanwind_204.txt.gz
Wind_Speed
14 13 13 14 15 15 14 14 14 13 13 13 13 13 13 13 13 13 13 14 14 15 16 17 17 18 18 19 19 19 20 20 19 19 20 21 21 21 20 21 21 21 22
15 15 14 14 14 15 15 14 13 13 13 13 13 13 14 14 14 15 15 15 16 17 18 19 19 19 20 20 20 21 22 22 21 22 22 22 22 23 23 23 23 23 23
15 15 15 15 15 15 14 14 14 14 14 14 14 14 14 15 15 15 15 16 17 18 19 19 20 20 20 21 21 22 23 23 23 23 24 25 24 24 24 25 25 25 25
16 16 16 16 15 15 15 14 14 14 14 14 14 14 14 15 15 16 16 17 17 18 19 20 20 21 22 22 23 23 23 23 24 24 25 25 26 27 27 27 28 28 27
17 17 17 16 16 16 15 15 15 15 15 15 15 15 14 15 16 17 17 17 18 19 20 20 21 21 23 24 24 24 24 25 25 25 25 25 26 27 28 29 29 30 30
17 17 17 17 17 17 16 16 16 16 16 16 15 15 15 16 17 17 18 19 20 21 21 22 23 23 24 23 24 25 25 26 26 26 26 27 27 29 30 30 30 31 31
18 17 17 17 17 17 16 16 16 16 16 16 16 16 15 16 17 18 19 20 20 21 21 22 23 24 24 24 25 26 27 27 26 27 27 28 29 30 30 30 32 32 31
18 17 17 18 17 17 16 16 16 15 16 16 17 17 17 17 18 19 21 22 21 21 21 22 23 24 24 25 26 26 26 26 27 28 28 29 29 30 30 31 32 32 32
19 19 19 19 18 17 17 17 16 16 16 17 17 18 18 19 20 21 21 21 21 22 22 23 23 24 24 25 25 25 26 27 28 28 28 29 30 31 32 33 33 33 33
20 21 21 20 19 18 18 18 17 17 18 18 19 20 20 20 20 20 21 22 23 23 24 24 24 24 24 25 25 26 27 28 28 28 29 30 30 31 32 34 34 35 36
22 22 21 21 20 19 19 19 19 19 19 19 19 19 20 20 20 21 22 22 23 23 24 25 25 26 26 26 26 27 27 28 27 28 30 31 32 32 33 33 34 36 37
22 22 22 21 21 20 20 19 20 20 21 21 21 20 20 21 21 22 22 23 24 24 25 26 25 25 26 27 27 28 28 29 30 30 31 32 32 33 34 35 36 36 37
23 22 22 22 21 21 21 20 21 22 22 22 22 22 22 23 23 23 24 24 25 25 26 26 26 26 27 27 27 28 29 30 31 31 31 32 33 33 34 36 37 37 37
22 22 22 21 21 21 21 22 22 23 23 23 23 23 23 23 24 24 25 25 26 26 26 27 26 27 27 27 28 28 29 29 30 31 32 32 33 34 35 36 36 37 37
22 21 21 21 22 21 21 22 22 23 24 24 24 24 24 25 25 26 26 27 27 27 28 28 28 28 28 29 30 30 30 31 32 32 33 34 35 36 36 36 37 38 38
22 22 21 21 21 21 22 23 24 24 25 25 25 26 26 26 27 27 28 28 28 28 28 28 29 29 30 30 30 31 31 32 33 34 34 35 35 36 36 36 37 38 39
24 23 23 22 22 22 22 23 24 25 25 26 26 27 27 28 28 28 27 27 28 29 29 29 30 30 31 31 31 32 32 33 34 35 35 36 37 37 37 37 38 39 39
24 24 23 23 23 23 23 23 24 25 26 26 27 28 28 28 28 28 28 28 29 29 30 30 30 31 31 32 32 33 34 34 35 36 36 37 37 37 37 38 39 39 40
24 24 24 23 23 23 23 24 25 26 27 27 28 28 28 28 28 28 28 29 29 30 30 30 31 32 32 33 34 35 36 36 36 36 37 38 38 38 38 38 39 39 39
22 22 23 23 23 23 23 24 25 25 26 27 27 27 28 28 28 28 29 29 29 30 31 32 33 33 34 34 35 35 36 36 36 37 37 37 38 38 39 39 39 39 39
22 22 22 22 22 23 23 24 25 26 27 27 26 26 27 27 28 28 28 29 30 31 31 32 33 34 35 35 35 36 36 36 36 37 37 37 38 39 39 39 40 40 39
21 21 21 21 21 22 22 23 23 24 25 25 24 25 25 26 27 28 29 30 31 31 32 33 34 34 35 35 35 35 35 36 36 37 37 38 39 39 39 39 39 38 38
20 20 20 21 21 22 23 23 23 23 23 24 25 25 26 27 28 29 30 31 31 32 32 33 33 34 34 34 34 35 36 36 37 37 37 37 37 37 37 37 37 37 36
18 19 20 21 21 22 22 22 22 22 23 24 24 25 26 27 28 29 29 30 30 31 32 33 33 34 34 34 35 36 37 37 36 37 36 36 35 35 35 35 35 35 35
18 19 20 20 20 21 21 21 21 22 23 23 24 25 26 27 27 28 28 29 30 31 32 32 32 32 33 34 35 35 36 36 36 35 35 35 35 35 35 34 35 35 34
19 19 19 19 20 20 21 21 22 23 24 24 25 26 27 27 28 28 29 29 30 30 31 32 32 33 33 34 35 35 36 36 35 35 34 34 34 34 34 34 33 33 33

GEFSGL_500_meanwind_210.txt.gz
Wind_Speed
13 14 14 14 15 14 14 13 14 13 12 12 12 12 12 12 12 13 13 13 13 14 14 15 15 16 17 18 18 19 19 19 19 19 19 20 20 20 21 20 20 20 20
14 14 15 15 15 15 15 15 15 13 12 12 12 12 12 12 13 13 14 14 14 15 15 16 17 18 19 20 20 20 20 20 20 20 20 21 21 21 22 22 22 22 22
15 15 15 15 15 15 15 15 15 14 13 13 13 13 13 13 13 14 15 15 15 16 16 17 18 18 19 19 19 19 20 20 20 21 21 21 22 23 23 23 24 24 24
15 16 16 15 14 14 15 15 14 14 14 14 14 14 13 13 14 15 16 16 16 17 18 18 18 18 18 19 19 20 20 20 21 23 23 23 23 24 25 25 24 24 25
16 15 15 15 16 15 16 16 16 16 15 15 15 15 15 15 16 17 17 17 18 18 18 19 19 19 20 20 21 21 22 22 23 24 24 23 24 25 26 26 26 26 27
16 16 16 17 17 17 17 17 18 17 17 17 17 17 17 16 17 17 17 18 18 18 19 19 19 20 21 22 22 23 23 24 24 24 24 24 24 25 26 27 28 28 28
17 17 18 18 18 18 19 19 18 18 18 19 18 18 17 17 17 17 17 18 18 19 20 20 20 21 22 23 24 24 24 24 24 24 24 24 25 25 26 28 28 29 30
19 19 19 19 19 19 19 19 19 20 19 19 19 18 18 17 17 18 18 19 19 20 21 21 22 22 22 23 24 24 24 24 25 25 25 26 26 27 28 29 29 30 30
20 20 20 20 20 20 20 20 20 20 20 19 19 19 18 19 19 19 20 20 20 21 22 22 22 22 23 23 24 24 24 25 25 26 27 28 28 28 29 30 30 30 31
21 21 21 21 20 20 21 21 21 21 21 20 20 20 20 20 20 21 21 21 22 22 22 22 23 24 24 24 25 25 26 27 27 28 28 28 29 30 30 31 31 31 32
22 21 22 22 22 22 23 22 23 22 22 21 21 21 21 21 21 21 22 23 23 24 24 24 24 24 25 26 27 27 27 28 29 29 30 29 29 30 31 31 32 33 33
24 23 23 23 24 24 24 23 23 23 23 22 22 22 22 22 23 23 23 24 24 24 25 25 25 26 27 27 28 29 29 29 29 30 30 30 30 30 31 31 32 33 34
25 25 25 24 25 26 25 24 24 24 24 23 22 23 24 24 24 24 25 26 26 27 27 27 27 28 29 29 29 30 30 30 30 30 30 30 31 31 32 32 33 34 35
26 26 25 26 26 26 25 25 25 25 24 24 24 24 25 25 24 25 26 27 28 29 29 28 29 29 30 30 30 31 31 31 31 31 32 32 32 33 33 34 34 35 36
27 27 27 26 26 26 26 25 25 25 25 25 25 25 25 26 26 27 29 29 30 30 29 29 29 30 30 30 30 30 31 32 33 33 33 34 34 35 35 35 36 37 37
27 26 26 26 25 26 25 25 26 26 26 27 27 27 27 28 28 28 29 30 30 30 30 30 30 30 30 30 31 32 32 33 33 34 35 36 36 36 37 37 38 38 39
26 26 25 25 25 26 26 26 26 27 27 28 27 28 28 29 29 29 30 31 31 30 30 30 31 31 32 32 32 33 33 34 34 35 36 37 37 37 38 38 39 39 40
26 26 25 26 26 26 26 25 26 27 28 28 28 28 29 29 29 30 30 30 30 29 30 31 32 32 32 33 34 34 35 36 36 37 37 37 37 38 38 39 39 39 40
25 25 25 25 26 25 25 25 25 26 26 26 27 27 28 28 28 29 29 29 29 30 31 32 33 34 34 34 35 36 37 37 37 37 37 37 38 39 39 39 39 39 40
24 24 24 25 25 25 25 26 26 26 26 25 25 26 26 27 27 28 28 29 30 31 32 32 32 33 34 35 36 36 37 37 37 37 37 38 38 39 39 39 39 40 41
24 24 24 24 25 25 26 26 26 26 25 24 24 25 26 27 27 28 28 29 30 30 31 31 32 32 33 34 35 36 37 37 37 38 38 38 38 39 39 39 40 40 39
24 24 24 25 25 25 25 26 25 25 25 24 24 26 27 28 28 28 29 29 30 31 31 31 32 33 34 35 36 36 36 36 37 38 38 38 38 39 39 38 38 38 38
24 24 24 25 25 25 25 25 26 26 26 26 27 27 28 28 28 28 29 29 30 31 31 32 32 33 34 34 35 35 36 36 37 38 38 38 38 38 38 38 38 37 38
23 24 24 25 24 24 25 25 25 26 26 27 27 27 27 27 28 28 29 29 30 31 32 32 33 33 34 34 35 35 35 36 37 38 38 38 38 37 37 37 36 36 36
23 24 24 23 23 24 25 25 25 25 25 26 26 26 27 27 28 29 30 30 31 32 32 33 34 34 35 35 36 35 35 36 37 37 36 36 36 35 34 34 34 34 34
22 22 22 22 23 23 23 24 24 25 25 26 26 26 26 28 29 30 30 31 32 33 34 34 35 35 35 35 35 35 35 35 35 35 34 34 34 33 33 33 33 33 33